Location: *
(51.0333°S, 178.4667°E)
Time: 17:57:07
(UTC+00:00)

Cosmos 1378 Rocket - Pass Details

Date: 15 November 2019
Orbit: 601 x 628 km, 82.5° (Epoch: 05 December)

Event Time Altitude Azimuth Distance (km) Brightness Sun altitude
Rises 09:08:05 0° 185° (S) 2,965 8.1 -11.9°
Reaches altitude 10° 09:10:30 10° 177° (S) 2,048 7.0 -12.2°
Maximum altitude 09:14:45 38° 108° (ESE) 984 4.4 -12.6°
Enters shadow 09:17:29 19° 50° (NE) 1,517 4.9 -12.8°
